period_start,C,m1,H,J0,J1,J2,J3,J4,J5,JA,JB,JC,JD,JJ,JK,JN,#
2016-07-26 00:00:27,0.01,0.25,0.00,26.50,30.32,33.01,14.26,47.41,1014.17,2025.03,3343.00,2995.39,3396.09,599.70,587.30,28.77,0000 0000 0000 0000 000000
2016-07-26 00:05:29,0.01,0.25,0.00,26.50,30.32,33.01,14.23,47.43,1014.17,2025.03,3342.98,2995.11,3396.02,599.65,587.27,28.82,0000 0000 0000 0000 000000
2016-07-26 00:10:30,0.01,0.25,0.00,26.51,30.32,32.97,14.22,47.47,1014.17,2025.03,3342.62,2995.02,3396.00,599.68,587.33,28.87,0000 0000 0000 0000 000000
2016-07-26 00:15:31,0.01,0.25,0.00,26.52,30.32,32.97,14.28,47.48,1014.17,2025.06,3342.12,2995.00,3396.00,599.74,587.38,28.92,0000 0000 0000 0000 000000
2016-07-26 00:20:33,-0.00,0.25,0.00,26.52,30.32,32.95,14.32,47.49,1014.14,2025.04,3342.02,2995.00,3395.99,600.09,587.71,28.97,0000 0000 0000 0000 000000
2016-07-26 00:25:34,0.00,0.25,0.00,26.53,30.33,32.98,14.33,47.48,1014.08,2025.04,3342.00,2995.00,3395.93,599.96,587.51,29.02,0000 0000 0000 0000 000000
2016-07-26 00:30:35,-0.00,0.25,0.00,26.54,30.34,32.98,14.30,47.44,1014.05,2025.05,3342.00,2994.99,3395.84,599.86,587.25,29.07,0000 0000 0000 0000 000000
2016-07-26 00:35:36,0.01,0.25,0.00,26.55,30.35,32.98,14.27,47.37,1014.10,2025.07,3341.96,2994.94,3395.21,600.11,587.55,29.12,0000 0000 0000 0000 000000
2016-07-26 00:40:37,0.01,0.25,0.00,26.56,30.35,32.95,14.24,47.36,1013.77,2025.06,3341.47,2994.72,3395.04,599.96,587.32,29.17,0000 0000 0000 0000 000000
2016-07-26 00:45:39,0.01,0.25,0.00,26.56,30.35,32.94,14.27,47.36,1013.89,2025.04,3341.13,2994.42,3395.00,600.06,587.43,29.22,0000 0000 0000 0000 000000
2016-07-26 00:50:40,0.01,0.25,0.00,26.56,30.35,32.97,14.24,47.27,1013.99,2025.04,3341.01,2994.18,3395.00,600.18,587.67,29.27,0000 0000 0000 0000 000000
2016-07-26 00:55:41,0.00,0.25,0.00,26.57,30.36,32.96,14.30,47.52,1014.12,2025.08,3341.00,2994.11,3395.00,599.97,587.46,29.32,0000 0000 0000 0000 000000
2016-07-26 01:00:43,0.00,0.26,0.00,26.58,30.37,32.98,14.15,47.24,1013.95,2025.07,3340.99,2994.02,3394.98,599.65,587.13,29.37,0000 0000 0000 0000 000000
2016-07-26 01:05:44,0.04,0.26,0.00,26.60,30.37,33.02,14.27,47.58,1013.92,2025.03,3340.22,2993.68,3394.24,599.65,586.93,29.42,0000 0000 0000 0000 000000
2016-07-26 01:10:45,0.02,0.26,0.00,26.60,30.37,33.00,14.25,47.32,1014.08,2025.01,3339.75,2993.11,3393.96,599.97,587.34,29.47,0000 0000 0000 0000 000000
2016-07-26 01:15:47,0.02,0.26,0.00,26.60,30.38,33.00,14.24,47.52,1013.89,2025.01,3339.20,2993.03,3393.67,599.98,587.24,29.52,0000 0000 0000 0000 000000
2016-07-26 01:20:48,0.00,0.26,0.00,26.62,30.40,32.98,14.29,47.52,1013.70,2025.01,3339.02,2993.00,3393.36,599.73,586.84,29.57,0000 0000 0000 0000 000000
2016-07-26 01:25:50,0.00,0.26,0.00,26.63,30.40,33.00,14.24,47.37,1013.70,2025.01,3339.00,2993.00,3393.17,599.60,586.68,29.62,0000 0000 0000 0000 000000
2016-07-26 01:30:51,0.00,0.26,0.00,26.63,30.40,33.02,14.24,47.44,1013.69,2025.01,3339.00,2993.00,3393.03,599.69,586.85,29.67,0000 0000 0000 0000 000000
2016-07-26 01:35:52,0.00,0.26,0.00,26.65,30.40,33.00,14.23,47.47,1013.78,2025.00,3338.98,2993.00,3393.00,600.04,586.91,29.72,0000 0000 0000 0000 000000
2016-07-26 01:40:53,0.00,0.26,0.00,26.67,30.42,33.01,14.20,47.27,1013.94,2025.00,3338.79,2992.96,3393.00,600.15,587.34,29.77,0000 0000 0000 0000 000000
2016-07-26 01:45:55,0.01,0.26,0.00,26.67,30.42,33.00,14.26,47.42,1013.83,2025.00,3338.34,2992.89,3392.99,600.14,587.31,29.82,0000 0000 0000 0000 000000
2016-07-26 01:50:56,0.00,0.26,0.00,26.67,30.42,33.00,14.21,47.34,1013.69,2025.00,3338.04,2992.62,3392.95,599.93,587.13,29.87,0000 0000 0000 0000 000000
2016-07-26 01:55:57,0.02,0.26,0.00,26.69,30.43,33.07,14.28,47.59,1013.69,2025.00,3338.00,2992.11,3392.45,600.29,587.10,29.92,0000 0000 0000 0000 000000
2016-07-26 02:00:58,0.00,0.26,0.00,26.70,30.45,33.02,14.18,47.38,1013.69,2025.00,3337.99,2992.01,3392.07,599.65,586.60,29.97,0000 0000 0000 0000 000000
2016-07-26 02:05:59,0.00,0.26,0.00,26.71,30.45,33.00,14.26,47.50,1013.70,2025.00,3337.98,2992.01,3392.01,600.26,587.28,30.02,0000 0000 0000 0000 000000
2016-07-26 02:11:01,-0.00,0.26,0.00,26.73,30.45,33.04,14.28,47.38,1013.70,2025.00,3337.88,2992.00,3392.01,599.81,586.66,30.07,0000 0000 0000 0000 000000
2016-07-26 02:16:02,0.01,0.26,0.00,26.74,30.46,33.01,14.11,47.23,1013.69,2025.00,3337.43,2992.00,3392.00,599.45,586.54,30.12,0000 0000 0000 0000 000000
2016-07-26 02:21:03,0.00,0.26,0.00,26.76,30.47,33.02,14.24,47.73,1013.69,2024.99,3337.08,2992.00,3391.98,599.97,586.84,30.17,0000 0000 0000 0000 000000
2016-07-26 02:26:04,0.00,0.26,0.00,26.76,30.47,33.02,14.30,47.51,1013.69,2024.99,3337.04,2992.00,3391.97,600.27,587.07,30.22,0000 0000 0000 0000 000000
2016-07-26 02:31:06,0.00,0.26,0.00,26.77,30.49,33.04,14.23,47.38,1013.68,2024.97,3337.00,2991.97,3391.72,599.78,586.66,30.27,0000 0000 0000 0000 000000
2016-07-26 02:36:07,0.01,0.26,0.00,26.78,30.50,33.07,14.25,47.50,1013.68,2024.96,3336.99,2991.84,3391.26,599.97,586.92,30.32,0000 0000 0000 0000 000000
2016-07-26 02:41:08,0.01,0.26,0.00,26.78,30.51,33.05,14.24,47.33,1013.57,2024.94,3336.95,2991.40,3391.03,600.63,587.31,30.37,0000 0000 0000 0000 000000
2016-07-26 02:46:09,0.02,0.26,0.00,26.82,30.52,33.06,14.22,47.63,1013.46,2024.89,3336.40,2991.04,3391.00,599.95,586.72,30.42,0000 0000 0000 0000 000000
2016-07-26 02:51:11,-0.02,0.26,0.00,26.84,30.52,33.04,14.21,47.47,1013.66,2024.71,3336.05,2991.00,3391.00,599.77,586.48,30.48,0000 0000 0000 0000 000000
2016-07-26 02:56:12,-0.01,0.26,0.00,26.85,30.54,33.05,14.28,47.48,1013.69,2024.60,3336.01,2990.99,3390.99,600.27,587.04,30.53,0000 0000 0000 0000 000000
2016-07-26 03:01:13,-0.02,0.26,0.00,26.86,30.55,33.06,14.23,47.50,1013.66,2024.42,3336.00,2990.99,3390.97,599.89,586.53,30.58,0000 0000 0000 0000 000000
2016-07-26 03:06:14,0.01,0.26,0.00,26.88,30.56,33.08,14.28,47.52,1013.49,2024.33,3335.93,2990.87,3390.60,599.90,586.41,30.63,0000 0000 0000 0000 000000
2016-07-26 03:11:16,0.02,0.26,0.00,26.89,30.57,33.10,14.24,47.46,1013.55,2024.13,3335.36,2990.27,3390.02,599.85,586.34,30.68,0000 0000 0000 0000 000000
2016-07-26 03:16:17,0.00,0.26,0.00,26.91,30.59,33.11,14.35,47.67,1013.65,2024.04,3335.05,2990.03,3390.00,600.15,586.73,30.73,0000 0000 0000 0000 000000
2016-07-26 03:21:18,-0.00,0.26,0.00,26.93,30.60,33.14,14.23,47.39,1013.51,2024.02,3335.00,2990.00,3389.96,600.43,586.86,30.78,0000 0000 0000 0000 000000
2016-07-26 03:26:20,0.00,0.26,0.00,26.94,30.62,33.14,14.30,47.62,1013.61,2024.00,3334.99,2990.00,3389.91,600.53,587.08,30.83,0000 0000 0000 0000 000000
2016-07-26 03:31:21,0.01,0.26,0.00,26.97,30.62,33.18,14.20,47.37,1013.68,2024.00,3334.96,2989.99,3389.30,599.92,586.34,30.88,0000 0000 0000 0000 000000
2016-07-26 03:36:22,0.00,0.27,0.00,26.99,30.65,33.16,14.22,47.48,1013.65,2024.00,3334.84,2989.95,3389.08,599.72,586.05,30.93,0000 0000 0000 0000 000000
2016-07-26 03:41:24,0.03,0.27,0.00,27.00,30.66,33.16,14.12,47.33,1013.52,2024.00,3334.19,2989.55,3389.00,599.67,585.98,30.98,0000 0000 0000 0000 000000
2016-07-26 03:46:25,0.00,0.27,0.00,27.01,30.67,33.18,14.19,47.47,1013.36,2024.00,3334.01,2989.09,3388.99,599.85,586.08,31.03,0000 0000 0000 0000 000000
2016-07-26 03:51:26,0.00,0.27,0.00,27.02,30.68,33.15,14.19,47.27,1013.33,2023.98,3334.00,2989.01,3388.91,599.94,586.16,31.08,0000 0000 0000 0000 000000
2016-07-26 03:56:27,0.00,0.27,0.00,27.04,30.70,33.19,14.24,47.42,1013.53,2023.99,3333.98,2989.00,3388.52,600.05,586.34,31.13,0000 0000 0000 0000 000000
2016-07-26 04:01:28,0.18,0.27,0.00,27.08,30.71,33.21,14.25,47.39,1013.60,2023.85,3332.34,2987.05,3386.33,600.10,586.30,31.18,0000 0000 0000 0000 000000
2016-07-26 04:06:30,-0.01,0.27,0.00,27.09,30.72,33.21,14.21,47.62,1013.58,2023.70,3331.13,2986.06,3385.15,599.89,586.13,31.23,0000 0000 0000 0000 000000
2016-07-26 04:11:31,0.07,0.28,0.00,27.09,30.75,33.23,14.24,47.51,1013.34,2023.40,3330.40,2984.27,3383.87,600.41,586.44,31.28,0000 0000 0000 0000 000000
2016-07-26 04:16:32,-0.11,0.28,0.00,27.10,30.75,33.21,14.23,47.41,1013.42,2023.19,3330.36,2984.81,3384.25,600.11,586.23,31.33,0000 0000 0000 0000 000000
2016-07-26 04:21:34,0.13,0.28,0.00,27.13,30.77,33.25,14.20,47.47,1013.24,2023.10,3329.35,2983.80,3382.72,599.87,585.75,31.38,0000 0000 0000 0000 000000
2016-07-26 04:26:35,0.01,0.28,0.00,27.16,30.79,33.25,14.20,47.48,1013.23,2023.03,3328.56,2983.31,3381.83,599.78,585.63,31.43,0000 0000 0000 0000 000000
2016-07-26 04:31:36,0.12,0.29,0.00,27.18,30.80,33.26,14.15,47.58,1013.36,2023.01,3326.92,2980.69,3379.47,599.76,585.62,31.48,0000 0000 0000 0000 000000
2016-07-26 04:36:37,-0.09,0.29,0.00,27.20,30.82,33.31,14.16,47.64,1013.30,2023.02,3327.03,2982.02,3380.48,599.87,585.61,31.53,0000 0000 0000 0000 000000
2016-07-26 04:41:39,0.01,0.28,0.00,27.20,30.84,33.29,14.28,47.51,1013.50,2023.00,3327.12,2982.45,3380.93,600.16,586.01,31.58,0000 0000 0000 0000 000000
2016-07-26 04:46:40,0.01,0.28,0.00,27.23,30.85,33.29,14.22,47.50,1013.49,2023.00,3327.01,2982.13,3380.68,600.06,585.91,31.63,0000 0000 0000 0000 000000
2016-07-26 04:51:41,0.01,0.28,0.00,27.24,30.87,33.34,14.18,47.54,1013.43,2023.00,3327.00,2982.07,3380.49,600.14,585.84,31.68,0000 0000 0000 0000 000000
2016-07-26 04:56:43,0.00,0.28,0.00,27.26,30.88,33.35,14.10,47.23,1013.28,2023.00,3327.00,2982.00,3380.12,599.53,585.19,31.73,0000 0000 0000 0000 000000
2016-07-26 05:01:44,0.00,0.28,0.00,27.28,30.90,33.37,14.19,47.38,1013.21,2022.99,3326.97,2982.00,3380.02,599.99,585.56,31.78,0000 0000 0000 0000 000000
2016-07-26 05:06:45,0.01,0.28,0.00,27.32,30.90,33.38,14.16,47.30,1013.21,2022.97,3326.63,2981.98,3380.00,599.99,585.50,31.83,0000 0000 0000 0000 000000
2016-07-26 05:11:46,0.00,0.29,0.00,27.33,30.92,33.37,14.25,47.27,1013.21,2022.95,3326.22,2981.88,3379.96,600.47,585.90,31.88,0000 0000 0000 0000 000000
2016-07-26 05:16:47,0.03,0.29,0.00,27.34,30.93,33.36,14.26,47.41,1013.21,2022.94,3326.01,2981.25,3379.41,600.55,586.00,31.93,0000 0000 0000 0000 000000
2016-07-26 05:21:49,-0.01,0.29,0.00,27.35,30.95,33.42,14.20,47.19,1013.21,2022.81,3325.99,2981.02,3379.03,600.29,585.65,31.98,0000 0000 0000 0000 000000
2016-07-26 05:26:50,0.01,0.29,0.00,27.37,30.96,33.42,14.18,47.51,1013.20,2022.79,3325.88,2981.00,3379.00,599.85,585.17,32.03,0000 0000 0000 0000 000000
2016-07-26 05:31:51,-0.01,0.29,0.00,27.38,30.97,33.44,14.28,47.36,1013.20,2022.58,3325.24,2980.99,3378.96,600.26,585.57,32.08,0000 0000 0000 0000 000000
2016-07-26 05:36:52,-0.01,0.29,0.00,27.39,31.00,33.46,14.22,47.42,1013.14,2022.27,3325.00,2980.82,3378.52,600.12,585.54,32.13,0000 0000 0000 0000 000000
2016-07-26 05:41:54,0.01,0.29,0.00,27.42,31.01,33.46,14.20,47.43,1013.20,2022.09,3324.99,2980.24,3378.04,599.91,585.21,32.18,0000 0000 0000 0000 000000
2016-07-26 05:46:55,0.01,0.29,0.00,27.42,31.02,33.47,14.21,47.38,1013.20,2022.07,3324.57,2980.03,3378.00,599.85,585.28,32.23,0000 0000 0000 0000 000000
2016-07-26 05:51:56,0.00,0.29,0.00,27.44,31.03,33.50,14.25,47.35,1013.19,2022.02,3324.02,2980.00,3377.90,600.06,585.35,32.28,0000 0000 0000 0000 000000
2016-07-26 05:56:57,0.01,0.29,0.00,27.46,31.05,33.49,14.30,47.43,1013.18,2022.01,3324.00,2979.92,3377.35,600.14,585.36,32.33,0000 0000 0000 0000 000000
2016-07-26 06:01:58,0.03,0.29,0.00,27.46,31.06,33.50,14.18,47.62,1013.14,2022.00,3323.70,2979.33,3377.01,600.02,585.21,32.38,0000 0000 0000 0000 000000
2016-07-26 06:07:00,0.01,0.29,0.00,27.48,31.07,33.52,14.16,47.39,1013.09,2022.00,3323.05,2979.00,3376.92,599.95,585.12,32.44,0000 0000 0000 0000 000000
2016-07-26 06:12:01,0.01,0.29,0.00,27.49,31.09,33.52,14.19,47.33,1012.96,2022.00,3323.00,2978.99,3376.23,600.16,585.19,32.49,0000 0000 0000 0000 000000
2016-07-26 06:17:02,0.02,0.29,0.00,27.50,31.10,33.54,14.26,47.38,1013.08,2021.99,3322.65,2978.70,3376.02,600.34,585.45,32.54,0000 0000 0000 0000 000000
2016-07-26 06:22:03,0.02,0.29,0.00,27.52,31.12,33.55,14.13,47.28,1013.01,2021.97,3322.03,2978.07,3375.93,599.91,584.91,32.59,0000 0000 0000 0000 000000
2016-07-26 06:27:05,0.01,0.29,0.00,27.53,31.13,33.58,14.25,47.42,1013.08,2021.95,3321.89,2977.99,3375.33,600.12,585.13,32.64,0000 0000 0000 0000 000000
2016-07-26 06:32:06,0.01,0.29,0.00,27.54,31.15,33.61,14.19,47.49,1013.14,2021.91,3321.17,2977.90,3375.01,599.88,584.85,32.69,0000 0000 0000 0000 000000
2016-07-26 06:37:07,0.01,0.29,0.00,27.55,31.15,33.61,14.16,47.36,1013.19,2021.92,3321.00,2977.27,3374.97,599.65,584.62,32.74,0000 0000 0000 0000 000000
2016-07-26 06:42:09,0.01,0.30,0.00,27.56,31.17,33.61,14.10,47.43,1013.17,2021.82,3320.46,2977.00,3374.31,599.53,584.55,32.79,0000 0000 0000 0000 000000
2016-07-26 06:47:10,-0.02,0.29,0.00,27.58,31.18,33.61,14.18,47.39,1013.17,2021.36,3320.00,2976.65,3373.96,600.02,585.02,32.84,0000 0000 0000 0000 000000
2016-07-26 06:52:11,0.03,0.30,0.00,27.59,31.20,33.63,14.17,47.44,1013.15,2021.20,3319.42,2976.04,3373.26,600.06,584.76,32.89,0000 0000 0000 0000 000000
2016-07-26 06:57:12,0.05,0.30,0.00,27.59,31.20,33.66,14.12,47.37,1013.12,2021.12,3318.20,2975.17,3372.19,599.89,584.88,32.94,0000 0000 0000 0000 000000
2016-07-26 07:02:13,0.01,0.30,0.00,27.61,31.22,33.67,14.21,47.48,1013.13,2021.10,3317.92,2974.91,3371.96,599.64,584.53,32.99,0000 0000 0000 0000 000000
2016-07-26 07:07:14,0.03,0.30,0.00,27.62,31.22,33.69,14.17,47.58,1013.00,2021.07,3317.48,2974.43,3371.50,599.92,584.73,33.04,0000 0000 0000 0000 000000
2016-07-26 07:12:16,0.01,0.30,0.00,27.62,31.24,33.70,14.16,47.42,1013.00,2021.01,3317.02,2974.02,3371.02,600.05,584.89,33.09,0000 0000 0000 0000 000000
2016-07-26 07:17:17,0.00,0.30,0.00,27.63,31.25,33.71,14.23,47.45,1013.10,2021.00,3316.98,2974.00,3370.99,600.01,584.85,33.14,0000 0000 0000 0000 000000
2016-07-26 07:22:19,0.02,0.30,0.00,27.64,31.26,33.69,14.06,47.24,1013.13,2021.00,3316.61,2973.92,3370.71,599.62,584.38,33.19,0000 0000 0000 0000 000000
2016-07-26 07:27:20,0.05,0.30,0.00,27.64,31.27,33.73,14.17,47.40,1013.13,2021.00,3315.75,2973.28,3369.85,600.35,585.14,33.24,0000 0000 0000 0000 000000
2016-07-26 07:32:21,0.02,0.31,0.00,27.66,31.27,33.74,14.21,47.48,1013.06,2021.00,3315.03,2972.59,3369.05,599.91,584.50,33.29,0000 0000 0000 0000 000000
2016-07-26 07:37:22,0.01,0.31,0.00,27.66,31.30,33.76,14.20,47.38,1013.11,2021.00,3315.00,2972.16,3369.00,599.81,584.68,33.34,0000 0000 0000 0000 000000
2016-07-26 07:42:24,0.00,0.31,0.00,27.66,31.30,33.74,14.17,47.38,1013.13,2021.00,3314.84,2972.02,3368.99,599.60,584.39,33.39,0000 0000 0000 0000 000000
2016-07-26 07:47:25,0.01,0.31,0.00,27.68,31.30,33.78,14.16,47.21,1013.18,2021.00,3314.21,2972.00,3368.97,599.98,584.90,33.44,0000 0000 0000 0000 000000
2016-07-26 07:52:26,0.00,0.31,0.00,27.68,31.32,33.80,14.12,47.46,1013.16,2021.00,3314.08,2972.00,3368.89,599.94,584.65,33.50,0000 0000 0000 0000 000000
2016-07-26 07:57:27,0.00,0.31,0.00,27.68,31.32,33.78,14.15,47.63,1013.08,2021.00,3314.00,2971.99,3368.40,600.08,584.78,33.55,0000 0000 0000 0000 000000
2016-07-26 08:02:29,0.00,0.31,0.00,27.68,31.32,33.79,14.19,47.51,1013.04,2021.00,3314.00,2971.96,3368.12,600.01,584.73,33.60,0000 0000 0000 0000 000000
2016-07-26 08:07:31,0.00,0.31,0.00,27.68,31.34,33.79,14.20,47.50,1013.06,2020.99,3314.00,2971.93,3368.01,600.21,584.72,33.65,0000 0000 0000 0000 000000
2016-07-26 08:12:32,0.01,0.31,0.00,27.69,31.35,33.80,14.19,47.46,1013.12,2020.99,3313.98,2971.65,3368.00,600.12,584.84,33.70,0000 0000 0000 0000 000000
2016-07-26 08:17:34,0.00,0.31,0.00,27.70,31.35,33.84,14.16,47.34,1013.09,2020.97,3313.97,2971.35,3367.99,599.85,584.76,33.75,0000 0000 0000 0000 000000
2016-07-26 08:22:35,0.01,0.31,0.00,27.71,31.36,33.85,14.23,47.44,1013.07,2020.97,3313.71,2971.10,3367.97,600.27,584.94,33.80,0000 0000 0000 0000 000000
2016-07-26 08:27:36,0.00,0.31,0.00,27.70,31.37,33.84,14.12,47.13,1013.16,2020.93,3313.29,2971.01,3367.90,599.96,584.64,33.85,0000 0000 0000 0000 000000
2016-07-26 08:32:37,0.00,0.31,0.00,27.70,31.37,33.90,14.23,47.39,1013.17,2020.86,3313.03,2971.00,3367.51,600.34,585.04,33.90,0000 0000 0000 0000 000000
2016-07-26 08:37:39,0.01,0.31,0.00,27.70,31.37,33.86,14.17,47.27,1013.13,2020.88,3313.00,2971.00,3367.25,599.91,584.54,33.95,0000 0000 0000 0000 000000
2016-07-26 08:42:40,-0.03,0.31,0.00,27.71,31.37,33.90,14.17,47.28,1013.13,2020.66,3312.99,2970.99,3367.02,599.89,584.64,34.00,0000 0000 0000 0000 000000
2016-07-26 08:47:41,0.01,0.31,0.00,27.69,31.39,33.92,14.18,47.37,1013.14,2020.58,3312.92,2970.94,3367.00,599.85,584.55,34.05,0000 0000 0000 0000 000000
2016-07-26 08:52:43,-0.00,0.31,0.00,27.69,31.40,33.96,14.25,47.48,1013.03,2020.38,3312.61,2970.62,3366.97,600.03,584.68,34.10,0000 0000 0000 0000 000000
2016-07-26 08:57:44,0.01,0.31,0.00,27.69,31.40,33.92,14.17,47.38,1012.97,2020.24,3312.05,2970.14,3366.89,600.02,584.71,34.15,0000 0000 0000 0000 000000
2016-07-26 09:02:45,0.01,0.31,0.00,27.68,31.40,33.96,14.25,47.48,1013.06,2020.37,3312.01,2970.08,3366.71,600.17,584.76,34.20,0000 0000 0000 0000 000000
2016-07-26 09:07:46,-0.00,0.31,0.00,27.68,31.40,33.96,14.17,47.46,1013.11,2020.16,3312.00,2970.01,3366.17,599.58,584.46,34.25,0000 0000 0000 0000 000000
2016-07-26 09:12:48,-0.00,0.31,0.00,27.67,31.42,34.01,14.20,47.42,1013.06,2020.07,3311.97,2970.00,3366.01,599.88,584.61,34.30,0000 0000 0000 0000 000000
2016-07-26 09:17:49,0.00,0.31,0.00,27.67,31.42,34.01,14.22,47.51,1013.10,2020.12,3311.86,2970.00,3366.00,600.36,585.08,34.36,0000 0000 0000 0000 000000
2016-07-26 09:22:50,0.00,0.31,0.00,27.67,31.42,34.02,14.22,47.43,1013.09,2020.09,3311.41,2969.99,3366.00,600.02,584.83,34.41,0000 0000 0000 0000 000000
2016-07-26 09:27:51,0.00,0.31,0.00,27.68,31.42,33.99,14.18,47.39,1013.06,2020.05,3311.06,2969.94,3365.97,599.70,584.76,34.46,0000 0000 0000 0000 000000
2016-07-26 09:32:52,0.00,0.31,0.00,27.68,31.42,34.01,14.22,47.33,1013.12,2020.08,3311.01,2969.89,3365.96,599.80,584.60,34.51,0000 0000 0000 0000 000000
2016-07-26 09:37:53,0.00,0.31,0.00,27.68,31.42,34.03,14.15,47.38,1013.19,2020.10,3311.00,2969.78,3365.93,599.92,584.70,34.56,0000 0000 0000 0000 000000
2016-07-26 09:42:55,0.01,0.31,0.00,27.67,31.42,34.02,14.24,47.30,1013.18,2020.08,3310.99,2969.53,3365.64,600.14,585.01,34.61,0000 0000 0000 0000 000000
2016-07-26 09:47:56,0.01,0.31,0.00,27.66,31.42,34.03,14.24,47.46,1013.15,2020.04,3310.76,2969.07,3365.13,600.42,585.10,34.66,0000 0000 0000 0000 000000
2016-07-26 09:52:57,0.01,0.31,0.00,27.65,31.42,34.03,14.24,47.27,1013.19,2020.05,3310.16,2969.01,3365.02,600.00,584.75,34.71,0000 0000 0000 0000 000000
2016-07-26 09:57:59,0.00,0.31,0.00,27.65,31.44,34.02,14.18,47.27,1013.14,2020.13,3310.01,2969.00,3365.00,599.83,584.79,34.76,0000 0000 0000 0000 000000
2016-07-26 10:03:00,-0.00,0.31,0.00,27.65,31.44,34.07,14.18,47.25,1013.17,2020.10,3310.00,2969.00,3365.00,599.90,584.66,34.81,0000 0000 0000 0000 000000
2016-07-26 10:08:01,0.01,0.32,0.00,27.63,31.45,34.08,14.13,47.34,1013.19,2020.24,3309.99,2968.99,3364.98,599.63,584.47,34.86,0000 0000 0000 0000 000000
2016-07-26 10:13:02,0.01,0.32,0.00,27.64,31.45,34.12,14.27,47.48,1013.15,2020.26,3309.73,2968.98,3364.89,600.47,585.08,34.91,0000 0000 0000 0000 000000
2016-07-26 10:18:04,0.03,0.32,0.00,27.62,31.45,34.09,14.21,47.38,1013.13,2020.18,3308.95,2968.55,3364.27,600.35,585.19,34.96,0000 0000 0000 0000 000000
2016-07-26 10:23:05,0.03,0.32,0.00,27.62,31.45,34.11,14.24,47.56,1013.07,2020.15,3308.06,2968.01,3363.95,599.57,584.39,35.01,0000 0000 0000 0000 000000
2016-07-26 10:28:06,-0.00,0.32,0.00,27.62,31.45,34.11,14.17,47.44,1012.81,2020.15,3307.97,2967.98,3363.62,599.63,584.33,35.06,0000 0000 0000 0000 000000
2016-07-26 10:33:07,0.05,0.32,0.00,27.62,31.45,34.13,14.21,47.42,1012.96,2020.45,3307.72,2967.96,3363.28,600.13,584.90,35.11,0000 0000 0000 0000 000000
2016-07-26 10:38:09,0.00,0.32,0.00,27.61,31.45,34.12,14.20,47.35,1013.04,2020.59,3307.26,2967.91,3363.09,600.13,584.91,35.16,0000 0000 0000 0000 000000
2016-07-26 10:43:10,0.01,0.32,0.00,27.62,31.44,34.12,14.20,47.38,1013.17,2020.51,3307.02,2967.55,3363.00,599.74,584.56,35.21,0000 0000 0000 0000 000000
2016-07-26 10:48:11,0.01,0.32,0.00,27.61,31.43,34.15,14.26,47.53,1013.18,2020.45,3307.00,2967.19,3363.00,600.09,585.09,35.26,0000 0000 0000 0000 000000
2016-07-26 10:53:12,0.02,0.32,0.00,27.59,31.43,34.11,14.18,47.38,1013.20,2020.72,3306.99,2967.12,3363.00,599.69,584.60,35.31,0000 0000 0000 0000 000000
2016-07-26 10:58:14,-0.00,0.32,0.00,27.57,31.42,34.15,14.22,47.40,1013.14,2020.69,3306.80,2967.03,3362.98,600.25,585.23,35.37,0000 0000 0000 0000 000000
2016-07-26 11:03:15,0.00,0.32,0.00,27.56,31.42,34.16,14.24,47.52,1013.17,2020.64,3306.25,2967.00,3362.94,600.06,585.03,35.42,0000 0000 0000 0000 000000
2016-07-26 11:08:17,0.03,0.33,0.00,27.57,31.42,34.12,14.20,47.38,1013.20,2020.82,3306.04,2967.00,3362.87,600.30,585.25,35.47,0000 0000 0000 0000 000000
2016-07-26 11:13:18,0.01,0.33,0.00,27.57,31.42,34.14,14.22,47.40,1013.20,2020.86,3306.00,2967.00,3362.36,600.10,585.11,35.52,0000 0000 0000 0000 000000
2016-07-26 11:18:19,0.01,0.33,0.00,27.55,31.42,34.18,14.21,47.36,1013.20,2020.81,3305.95,2966.98,3362.02,599.89,585.00,35.57,0000 0000 0000 0000 000000
2016-07-26 11:23:21,0.01,0.33,0.00,27.55,31.42,34.13,14.22,47.38,1013.20,2020.93,3305.75,2966.94,3362.01,600.41,585.61,35.62,0000 0000 0000 0000 000000
2016-07-26 11:28:22,0.02,0.33,0.00,27.54,31.42,34.15,14.25,47.71,1013.18,2020.93,3305.12,2966.53,3362.00,599.88,584.94,35.67,0000 0000 0000 0000 000000
2016-07-26 11:33:23,-0.00,0.33,0.00,27.54,31.41,34.15,14.18,47.38,1013.19,2020.87,3305.00,2966.12,3361.98,599.99,585.04,35.72,0000 0000 0000 0000 000000
2016-07-26 11:38:24,0.01,0.33,0.00,27.52,31.40,34.13,14.27,47.42,1013.19,2020.92,3305.00,2966.03,3361.88,600.44,585.45,35.77,0000 0000 0000 0000 000000
2016-07-26 11:43:25,0.01,0.33,0.00,27.51,31.40,34.15,14.23,47.48,1013.19,2020.94,3304.95,2966.00,3361.64,599.93,585.12,35.82,0000 0000 0000 0000 000000
2016-07-26 11:48:26,0.01,0.33,0.00,27.50,31.40,34.14,14.21,47.34,1013.20,2020.94,3304.69,2966.00,3361.23,599.93,584.96,35.87,0000 0000 0000 0000 000000
2016-07-26 11:53:28,0.01,0.33,0.00,27.50,31.40,34.13,14.21,47.35,1013.20,2020.94,3304.34,2966.00,3361.07,600.05,585.23,35.92,0000 0000 0000 0000 000000
2016-07-26 11:58:29,0.01,0.33,0.00,27.47,31.40,34.13,14.23,47.36,1013.20,2020.94,3304.10,2966.00,3361.04,599.72,584.92,35.97,0000 0000 0000 0000 000000
2016-07-26 12:03:30,0.00,0.33,0.00,27.47,31.39,34.12,14.24,47.42,1013.20,2020.96,3304.02,2966.00,3361.01,600.26,585.39,36.02,0000 0000 0000 0000 000000
2016-07-26 12:08:31,0.00,0.33,0.00,27.48,31.38,34.15,14.17,47.36,1013.20,2020.97,3304.00,2965.99,3361.00,599.89,585.01,36.07,0000 0000 0000 0000 000000
2016-07-26 12:13:33,-0.00,0.33,0.00,27.46,31.37,34.16,14.20,47.27,1013.20,2020.97,3304.00,2965.98,3361.00,600.04,585.23,36.12,0000 0000 0000 0000 000000
2016-07-26 12:18:34,0.00,0.33,0.00,27.47,31.37,34.14,14.25,47.53,1013.20,2020.97,3304.00,2965.97,3361.00,599.51,584.69,36.17,0000 0000 0000 0000 000000
2016-07-26 12:23:35,-0.00,0.33,0.00,27.45,31.37,34.15,14.17,47.29,1013.20,2020.96,3303.97,2965.95,3360.99,600.03,585.19,36.22,0000 0000 0000 0000 000000
2016-07-26 12:28:36,0.00,0.33,0.00,27.44,31.37,34.15,14.17,47.27,1013.20,2020.99,3303.95,2965.95,3360.99,600.02,585.17,36.27,0000 0000 0000 0000 000000
2016-07-26 12:33:38,0.00,0.33,0.00,27.44,31.37,34.15,14.25,47.47,1013.20,2020.98,3303.78,2965.88,3360.98,600.10,585.39,36.33,0000 0000 0000 0000 000000
2016-07-26 12:38:39,-0.00,0.33,0.00,27.42,31.35,34.15,14.18,47.30,1013.20,2020.98,3303.56,2965.82,3360.98,599.91,585.14,36.38,0000 0000 0000 0000 000000
2016-07-26 12:43:40,0.01,0.33,0.00,27.41,31.35,34.16,14.21,47.27,1013.20,2020.98,3303.33,2965.85,3360.96,600.15,585.37,36.43,0000 0000 0000 0000 000000
2016-07-26 12:48:42,0.00,0.33,0.00,27.40,31.35,34.12,14.18,47.40,1013.21,2020.99,3303.11,2965.78,3360.93,599.80,585.02,36.48,0000 0000 0000 0000 000000
2016-07-26 12:53:43,-0.00,0.33,0.00,27.40,31.35,34.13,14.21,47.52,1013.20,2020.99,3303.06,2965.78,3360.94,599.93,585.22,36.53,0000 0000 0000 0000 000000